This is the latest recevied weather packets stored in our database for station/object KI8L. If no packets are shown the sender has not sent any weather packets the latest 10 day(s).
| Time | Temp. | Humidity | Pressure | Rain* | Wind** | Luminosity | Snow |
|---|---|---|---|---|---|---|---|
| 1777603987 | 5° C | 95% | 1017.4 hPa | 0 mm | - | 0 W/m² | - |
| 1777603684 | 4.44° C | 95% | 1017.4 hPa | 0 mm | - | 0 W/m² | - |
| 1777603380 | 4.44° C | 95% | 1017.2 hPa | 0 mm | - | 0 W/m² | - |
| 1777603076 | 4.44° C | 96% | 1017.6 hPa | 0 mm | - | 0 W/m² | - |
| 1777602770 | 4.44° C | 95% | 1017.4 hPa | 0 mm | - | 0 W/m² | - |
| 1777602466 | 5° C | 95% | 1017 hPa | 0 mm | - | 0 W/m² | - |
| 1777602163 | 5° C | 95% | 1017.2 hPa | 0 mm | - | 0 W/m² | - |
| 1777601857 | 5° C | 96% | 1017.2 hPa | 0 mm | - | 0 W/m² | - |
| 1777601553 | 5° C | 95% | 1017.4 hPa | 0 mm | - | 0 W/m² | - |
| 1777601248 | 5° C | 93% | 1017.4 hPa | 0 mm | - | 0 W/m² | - |
| 1777600947 | 5° C | 94% | 1017.3 hPa | 0 mm | - | 0 W/m² | - |
| 1777600641 | 4.44° C | 93% | 1017.3 hPa | 0 mm | - | 0 W/m² | - |
| 1777600339 | 5° C | 91% | 1017.2 hPa | 0 mm | - | 0 W/m² | - |
| 1777600034 | 5° C | 91% | 1016.8 hPa | 0 mm | - | 0 W/m² | - |
| 1777599730 | 5° C | 90% | 1016.7 hPa | 0 mm | - | 0 W/m² | - |
| 1777599426 | 5° C | 89% | 1016.7 hPa | 0 mm | - | 0 W/m² | - |
| 1777599123 | 5° C | 87% | 1016.7 hPa | 0 mm | - | 0 W/m² | - |
| 1777598822 | 5.56° C | 86% | 1016.7 hPa | 0 mm | - | 0 W/m² | - |
| 1777598522 | 5.56° C | 86% | 1016.7 hPa | 0 mm | - | 0 W/m² | - |
| 1777598216 | 6.11° C | 84% | 1016.6 hPa | 0 mm | - | 0 W/m² | - |
| 1777597915 | 6.11° C | 86% | 1016.6 hPa | 0 mm | - | 0 W/m² | - |
| 1777597615 | 6.67° C | 85% | 1016.6 hPa | 0 mm | - | 0 W/m² | - |
| 1777597311 | 6.67° C | 82% | 1016.7 hPa | 0 mm | - | 0 W/m² | - |
| 1777597006 | 6.67° C | 82% | 1016.6 hPa | 0 mm | - | 0 W/m² | - |
| 1777596703 | 7.22° C | 76% | 1016.5 hPa | 0 mm | - | 0 W/m² | - |
* Rain latest hour (hover to see other rain measurements)
** Current wind speed in m/s (hover to see current wind gust speed)